Location: Namasale
(1.5000°N, 32.6167°E)
Time: 18:26:44
(UTC+00:00)

Vanguard 1 Rocket - Pass Details

Date: 25 April 2021
Orbit: 651 x 4225 km, 34.3° (Epoch: 17 May)

Event Time Altitude Azimuth Distance (km) Brightness Sun altitude
Rises 21:23:34 0° 250° (WSW) 5,330 - -73.9°
Reaches altitude 10° 21:28:08 10° 234° (SW) 4,896 - -74.3°
Maximum altitude 21:38:23 21° 191° (S) 5,138 - -74.8°
Drops below altitude 10° 21:53:03 10° 150° (SSE) 7,055 - -74.9°
Exits shadow 21:57:05 - 143° (SE) 7,652 11.9 -74.8°
Sets 22:02:22 0° 135° (SE) 8,414 12.2 -74.6°
